sat.trackr.live / text

‹ back to catalog

STARLINK-36311

NORAD 68525 · 2026-068T

PAYLOAD ACTIVE UNKNOWN

§ Identity

Operator
Country
US
Launch date
2026-03-30
Launch site
AFETR
Launch vehicle
Mass (kg)
RCS (m²)

Purposes: comms

External: N2YO · Heavens-Above · Gunter

§ Orbital elements

Epoch: 2026-09-19T19:48:40.326336Z

Period
93.85 min
Inclination
53.1587°
Eccentricity
0.0001560
Mean motion
15.34398543 rev/d
Perigee alt
461.6 km
Apogee alt
463.8 km
Semi-major
6,840.8 km
B*
3.6150e-4
RAAN
302.8705°
Arg perigee
85.4002°
Mean anomaly
274.7179°
Rev number
2,673

§ Raw data

STARLINK-363111 68525U 26068T   26262.82546674  .00011856  00000+0  36150-3 0  99962 68525  53.1587 302.8705 0001560  85.4002 274.7179 15.34398543 26733

JSON: /api/v1/satellites/68525 · /tle

For live sub-satellite position, see the globe view (requires WebGL).

§ Visibility from observer

Set your observer location to see the next 7 days of passes ≥ 10°. The values pass through the URL so the page stays shareable.

No JS? Fill the form by hand. The geolocation button needs JavaScript.